Wind_Speed
60 63 67 70 74 79 83 88 91 94 93 89 85 80 77 74 73 72 72 73 76 81 87 95 104 110 111 109 106 102 99 94 90 87 83 81 78 75 71 67 63 61 59
61 64 67 71 76 80 85 88 91 90 86 81 77 74 72 71 71 71 71 72 73 76 80 86 93 102 109 112 111 109 105 101 97 92 89 85 83 80 76 72 68 64 61
62 65 69 73 77 82 85 88 87 84 80 76 73 72 71 70 70 71 72 72 74 76 79 82 87 94 102 109 112 113 111 107 103 98 94 91 87 85 81 77 73 68 64
62 66 70 74 79 83 85 86 83 79 76 73 71 70 69 70 71 72 74 75 76 77 79 82 86 90 96 103 110 113 115 113 109 104 100 96 92 89 86 82 78 73 68
63 67 71 76 80 83 84 83 80 76 73 71 70 68 68 69 70 72 72 73 74 76 78 82 85 89 93 99 107 112 116 117 114 110 105 101 97 94 91 87 83 78 72
65 69 73 77 81 82 82 80 76 73 72 71 69 67 67 67 68 67 66 66 67 70 74 79 83 88 93 97 104 111 116 118 118 114 110 106 102 98 95 91 87 83 77
67 70 74 78 81 81 80 77 74 71 70 70 68 68 65 63 62 60 60 60 61 64 68 74 81 86 92 97 102 109 115 118 119 118 114 110 106 102 99 96 92 87 82
68 72 75 79 80 80 78 75 73 71 69 69 70 70 65 58 53 52 53 53 52 54 59 67 75 83 90 96 100 106 113 118 120 120 118 114 110 106 103 99 96 92 86
70 73 76 79 79 78 76 73 71 70 68 66 68 69 67 62 54 47 46 45 44 43 47 57 68 78 86 93 99 103 110 117 120 121 120 117 114 110 107 103 100 96 91
71 74 76 78 78 76 74 72 70 70 68 66 65 64 63 61 59 52 42 39 37 35 36 45 57 69 80 89 96 102 107 114 119 122 122 120 117 114 110 107 103 99 95
72 74 76 77 76 74 72 70 69 68 67 66 65 62 58 56 54 53 46 36 32 30 30 35 46 59 72 82 91 99 105 111 117 122 123 122 120 117 114 110 107 103 98
73 75 76 76 75 73 71 69 68 67 65 65 64 62 58 54 51 49 45 38 31 26 25 28 37 50 63 75 85 94 102 108 115 120 123 124 122 120 117 113 110 106 102
73 75 75 75 73 71 69 68 66 65 64 63 62 60 56 53 50 47 43 37 30 24 21 23 31 42 54 66 77 87 97 105 112 118 122 124 124 122 119 116 112 108 104
74 75 74 73 72 70 68 66 65 64 63 62 60 58 55 51 48 44 41 36 29 21 18 20 26 35 46 57 69 80 89 99 107 114 119 122 123 123 120 117 114 111 107
74 74 74 72 71 68 67 65 64 63 62 60 59 57 53 50 46 41 38 34 28 21 17 18 22 28 38 48 60 72 81 90 99 108 114 120 122 123 122 119 116 113 109
74 74 73 71 69 67 65 64 62 62 60 59 57 55 52 49 45 40 36 31 27 22 17 16 19 23 31 41 51 63 72 81 91 100 108 115 120 122 122 121 118 115 111
74 73 72 70 68 66 64 63 61 60 59 58 56 54 51 48 44 38 34 30 25 21 17 14 16 20 26 34 44 54 64 72 81 91 101 109 116 121 122 121 119 116 113
73 73 72 70 68 65 63 62 60 59 58 57 55 53 49 47 43 37 33 29 24 20 17 14 14 18 22 29 37 46 55 64 73 83 93 103 111 118 122 122 120 118 115
72 72 71 69 67 64 62 61 59 58 57 56 54 52 49 46 42 37 32 28 23 19 16 14 14 16 20 26 32 40 48 55 64 74 85 95 105 114 120 122 121 119 116
72 71 70 69 66 63 61 60 58 56 56 55 53 51 49 46 42 37 32 27 23 18 16 13 13 16 19 24 29 35 42 49 57 66 76 87 98 108 116 120 120 119 117
72 70 69 68 66 63 61 59 56 55 54 53 52 51 49 46 42 37 32 27 22 18 15 13 13 15 18 22 27 32 37 43 50 59 68 80 91 102 111 117 120 120 118
71 70 68 67 65 62 60 58 56 54 54 53 51 50 48 46 42 36 31 26 22 17 15 13 12 14 17 21 25 30 35 39 45 53 61 72 84 94 105 114 119 119 118
69 68 67 66 64 61 59 57 55 54 53 52 50 49 47 46 41 36 31 25 21 17 14 12 12 14 17 20 24 28 32 36 41 47 55 63 76 87 99 109 116 119 118
68 67 66 64 62 60 58 55 53 53 52 51 49 48 46 45 41 36 31 25 20 16 13 11 11 13 16 19 23 27 31 34 38 42 49 56 69 80 92 103 112 117 118
67 66 65 63 61 59 57 55 52 52 51 50 49 47 46 44 41 35 30 26 21 17 13 11 11 13 15 18 22 25 29 32 35 39 45 52 62 72 85 96 107 114 116
65 65 64 62 60 58 56 54 52 51 49 49 47 47 45 44 41 35 30 25 21 16 13 11 10 12 14 17 21 24 27 30 33 37 42 48 57 67 77 90 101 110 115
Wind_Direction
312 312 312 312 312 312 312 311 310 307 305 302 298 294 290 286 282 277 272 266 261 255 250 245 240 237 234 232 230 229 229 228 227 225 223 222 221 220 220 220 221 221 220
313 313 314 314 314 315 315 314 312 310 307 303 300 296 292 288 283 279 273 267 262 256 250 245 240 235 232 230 228 227 226 226 225 224 222 221 220 219 219 219 219 220 220
315 315 316 316 317 318 317 316 314 312 309 306 302 299 295 291 286 280 275 269 263 257 251 245 240 235 231 228 226 225 223 223 223 222 221 220 219 218 217 217 218 218 218
318 318 319 320 321 321 320 319 317 314 311 308 305 301 298 294 289 283 278 271 264 257 251 245 240 235 230 226 223 222 221 221 221 221 220 219 218 217 216 216 216 217 217
321 321 322 323 324 324 323 322 319 317 314 311 308 305 302 298 293 288 282 274 267 259 251 245 239 235 230 226 222 220 219 219 219 219 218 217 217 216 215 215 215 215 216
324 324 325 326 327 326 325 324 321 319 316 314 312 310 307 303 299 294 287 279 270 260 251 244 238 233 229 225 222 218 217 216 216 217 217 216 215 215 214 214 213 213 214
327 328 328 329 329 329 327 326 323 322 320 317 315 314 312 309 305 299 293 285 274 263 252 243 236 232 228 224 221 218 215 214 214 215 215 215 214 214 213 213 212 212 212
330 331 331 332 332 331 329 328 326 325 323 321 319 319 317 315 310 306 301 293 282 268 254 243 235 230 226 223 220 218 215 213 213 213 213 214 213 213 212 212 212 211 211
333 333 334 334 334 333 331 330 328 327 326 325 324 323 323 322 319 316 309 302 292 277 258 243 234 228 224 221 219 217 216 213 212 211 212 212 212 212 212 211 211 210 210
335 335 336 336 335 334 333 332 330 329 329 329 328 327 326 325 324 324 320 310 300 285 264 245 233 227 223 220 217 216 215 214 212 211 210 210 211 211 211 210 210 210 209
337 337 337 337 337 336 335 333 332 332 332 331 331 331 329 328 326 326 325 319 306 291 270 249 235 226 222 219 216 215 214 213 212 211 210 209 209 209 209 209 209 209 208
338 339 339 339 338 338 336 335 334 334 334 334 334 334 333 331 330 328 327 323 313 298 277 254 237 227 221 218 216 214 213 212 212 211 210 208 208 208 208 209 208 208 208
340 340 340 340 340 339 338 337 336 336 336 336 336 336 335 334 332 332 330 326 318 305 284 259 240 229 222 218 215 214 213 212 212 211 210 208 208 207 208 208 208 208 207
341 341 341 341 341 340 339 338 338 338 338 338 338 338 337 336 335 334 333 329 323 311 289 264 245 232 224 219 216 214 213 212 212 211 210 209 207 207 207 207 207 207 207
342 342 342 342 342 341 341 340 340 340 340 340 340 339 339 338 336 335 333 330 326 316 296 270 250 235 225 220 217 214 213 213 212 211 211 209 208 206 206 206 206 207 207
342 343 343 343 343 342 342 341 341 341 342 341 341 341 340 340 338 336 333 330 325 317 303 278 255 237 225 220 217 215 213 212 212 212 211 210 208 206 206 206 206 206 206
342 343 344 344 344 343 343 343 342 342 343 343 343 343 342 341 339 337 334 330 324 316 304 282 259 239 226 220 217 214 213 213 213 212 211 210 209 207 205 205 205 205 205
342 343 344 344 344 344 344 344 343 343 344 344 344 344 344 343 342 338 335 331 324 314 303 283 258 239 225 218 215 214 214 214 213 213 212 211 209 208 206 205 204 205 205
342 343 344 345 345 345 345 345 344 344 345 345 345 346 345 345 344 340 337 332 325 314 302 285 258 238 225 217 213 212 213 214 214 214 213 212 210 208 206 205 204 204 204
341 343 344 345 346 346 345 345 345 345 346 346 346 347 347 347 345 342 338 333 327 316 301 284 259 238 224 215 212 211 212 213 214 214 214 213 211 209 207 205 204 204 204
341 342 344 345 346 346 346 346 346 345 346 347 348 348 348 348 346 344 340 334 327 317 304 285 259 238 225 215 212 211 211 212 213 214 214 213 212 210 208 206 204 204 204
340 342 343 345 346 346 346 346 346 346 347 348 349 349 349 349 347 345 341 336 329 318 305 286 260 240 226 216 212 210 210 211 212 213 214 213 212 211 208 207 205 204 204
339 341 343 345 346 346 346 346 346 347 347 348 349 350 350 349 348 347 344 338 332 321 307 287 260 240 226 217 212 210 210 210 211 213 213 213 212 211 209 207 205 204 203
338 340 342 344 346 346 346 346 347 347 347 348 349 350 350 350 349 348 346 343 335 325 310 289 262 240 227 218 213 211 210 210 211 212 212 213 212 211 210 208 206 204 203
336 339 341 344 345 346 347 347 347 348 348 348 349 350 351 351 350 349 348 345 339 330 316 293 264 241 228 221 216 213 212 211 211 210 210 211 211 210 210 208 207 205 204
335 337 340 343 345 347 347 347 348 348 349 349 349 350 351 351 351 350 349 346 340 332 320 299 269 245 231 224 218 215 214 212 211 209 208 208 208 208 208 208 207 205 204
Height
5748 5739 5730 5720 5708 5696 5682 5666 5649 5631 5612 5596 5581 5569 5559 5550 5544 5539 5538 5538 5539 5543 5550 5560 5573 5590 5608 5626 5644 5660 5674 5688 5702 5714 5726 5736 5747 5757 5767 5776 5784 5792 5800
5737 5727 5717 5705 5692 5677 5661 5644 5625 5606 5588 5572 5559 5546 5536 5528 5521 5516 5513 5512 5512 5515 5520 5527 5537 5551 5570 5589 5609 5628 5646 5662 5677 5691 5705 5717 5729 5740 5752 5762 5771 5780 5789
5725 5714 5702 5689 5674 5658 5640 5621 5601 5582 5565 5550 5537 5525 5515 5505 5497 5490 5486 5484 5485 5487 5491 5498 5506 5518 5534 5553 5574 5595 5615 5633 5650 5667 5682 5697 5710 5723 5735 5747 5757 5767 5776
5712 5700 5687 5672 5656 5638 5619 5599 5580 5562 5545 5530 5518 5506 5494 5483 5472 5464 5458 5455 5454 5457 5461 5468 5477 5488 5502 5519 5539 5560 5581 5602 5622 5641 5659 5675 5690 5704 5717 5730 5742 5754 5764
5698 5685 5671 5656 5638 5619 5598 5578 5559 5541 5526 5511 5498 5486 5473 5460 5447 5437 5429 5423 5422 5424 5429 5437 5446 5459 5473 5488 5506 5526 5549 5572 5594 5615 5634 5652 5669 5684 5699 5713 5726 5739 5751
5684 5670 5655 5638 5620 5600 5579 5559 5541 5523 5506 5491 5478 5466 5453 5438 5423 5411 5401 5395 5392 5392 5397 5406 5416 5429 5444 5459 5476 5495 5518 5541 5565 5588 5609 5628 5646 5663 5680 5695 5709 5723 5736
5670 5655 5639 5621 5602 5582 5562 5542 5524 5508 5491 5473 5459 5447 5435 5419 5403 5389 5377 5369 5364 5363 5367 5375 5386 5399 5414 5430 5448 5467 5489 5512 5537 5561 5583 5604 5624 5642 5660 5676 5692 5707 5721
5656 5640 5623 5605 5585 5565 5545 5526 5508 5492 5476 5457 5439 5424 5412 5404 5389 5373 5358 5347 5340 5337 5340 5346 5356 5370 5385 5403 5422 5441 5463 5485 5510 5534 5557 5580 5601 5621 5639 5657 5674 5690 5705
5641 5625 5608 5589 5569 5550 5530 5511 5493 5476 5462 5445 5424 5405 5388 5376 5368 5360 5344 5332 5322 5317 5318 5322 5331 5343 5359 5377 5397 5418 5439 5460 5483 5507 5531 5555 5578 5599 5619 5637 5655 5672 5689
5628 5611 5593 5574 5555 5535 5516 5498 5480 5462 5446 5432 5416 5396 5377 5359 5346 5338 5333 5320 5310 5304 5302 5304 5311 5322 5336 5354 5373 5393 5414 5436 5458 5481 5505 5530 5554 5576 5597 5617 5636 5654 5672
5615 5598 5579 5561 5542 5523 5504 5486 5468 5451 5433 5417 5402 5387 5371 5355 5338 5324 5316 5310 5302 5295 5291 5292 5296 5305 5318 5333 5351 5371 5390 5411 5433 5456 5481 5505 5529 5552 5574 5595 5616 5636 5655
5602 5585 5567 5549 5530 5511 5493 5476 5458 5441 5425 5408 5391 5375 5360 5347 5333 5319 5308 5299 5293 5288 5284 5283 5286 5292 5302 5316 5332 5350 5369 5389 5410 5433 5456 5480 5505 5529 5553 5576 5598 5618 5638
5591 5574 5556 5538 5520 5501 5484 5467 5450 5433 5417 5400 5384 5369 5353 5339 5326 5313 5302 5293 5287 5282 5279 5278 5278 5283 5291 5302 5316 5333 5350 5368 5389 5411 5434 5459 5484 5510 5534 5558 5581 5601 5621
5582 5565 5547 5529 5510 5493 5475 5458 5442 5425 5409 5393 5378 5363 5348 5334 5321 5309 5299 5289 5283 5279 5276 5274 5274 5276 5282 5292 5304 5318 5334 5352 5371 5393 5416 5441 5466 5491 5516 5540 5563 5585 5605
5573 5556 5538 5520 5502 5485 5468 5451 5435 5419 5403 5388 5373 5358 5343 5330 5318 5306 5296 5287 5280 5275 5273 5271 5270 5272 5277 5285 5295 5307 5323 5339 5357 5377 5399 5423 5447 5472 5497 5521 5545 5568 5589
5564 5547 5530 5512 5495 5478 5461 5445 5429 5414 5398 5383 5368 5354 5340 5327 5315 5304 5295 5286 5279 5273 5270 5269 5268 5269 5273 5279 5287 5299 5313 5327 5343 5362 5382 5404 5429 5453 5478 5503 5527 5551 5574
5556 5539 5522 5505 5488 5472 5455 5439 5424 5409 5394 5379 5364 5350 5337 5324 5312 5302 5293 5285 5278 5273 5269 5268 5267 5267 5270 5275 5283 5293 5305 5318 5333 5349 5367 5388 5411 5435 5460 5485 5510 5535 5558
5548 5532 5515 5498 5482 5465 5449 5434 5419 5404 5390 5375 5361 5347 5334 5322 5310 5299 5291 5283 5277 5272 5268 5266 5266 5266 5269 5273 5280 5288 5299 5311 5324 5338 5355 5374 5396 5419 5443 5468 5493 5518 5542
5541 5525 5509 5492 5476 5460 5444 5429 5414 5400 5386 5372 5358 5345 5332 5319 5308 5298 5289 5281 5275 5270 5267 5265 5265 5265 5267 5271 5277 5284 5294 5304 5316 5329 5344 5361 5381 5404 5427 5452 5477 5502 5527
5534 5518 5502 5486 5470 5455 5439 5425 5410 5396 5382 5368 5355 5342 5329 5317 5305 5296 5287 5280 5274 5269 5266 5264 5263 5264 5266 5270 5274 5281 5290 5299 5310 5321 5334 5350 5369 5390 5413 5439 5467 5491 5514
5527 5512 5496 5480 5464 5450 5435 5421 5407 5394 5380 5367 5353 5339 5326 5314 5303 5293 5285 5278 5272 5268 5264 5262 5262 5263 5265 5268 5272 5278 5286 5294 5304 5314 5326 5341 5359 5381 5402 5425 5449 5473 5498
5521 5506 5491 5475 5459 5445 5430 5416 5403 5390 5376 5363 5350 5337 5324 5313 5302 5292 5283 5276 5270 5266 5263 5261 5260 5261 5263 5266 5270 5275 5282 5289 5299 5309 5320 5333 5349 5368 5388 5411 5435 5459 5483
5514 5500 5485 5470 5455 5440 5426 5412 5399 5386 5373 5360 5348 5335 5323 5311 5300 5291 5282 5275 5269 5265 5262 5260 5259 5260 5261 5264 5268 5273 5278 5285 5293 5302 5313 5326 5340 5358 5376 5398 5421 5446 5470
5508 5494 5479 5465 5450 5436 5422 5409 5396 5383 5370 5358 5346 5334 5322 5310 5299 5289 5281 5274 5268 5264 5260 5258 5258 5258 5259 5262 5265 5270 5275 5281 5288 5297 5307 5319 5332 5348 5366 5387 5410 5434 5458
5502 5488 5474 5460 5446 5432 5419 5406 5393 5381 5368 5356 5344 5332 5320 5309 5298 5288 5280 5273 5267 5263 5259 5257 5256 5256 5257 5259 5262 5266 5271 5277 5284 5292 5301 5311 5324 5339 5356 5377 5398 5422 5445
5496 5483 5469 5456 5442 5429 5415 5402 5390 5379 5367 5355 5342 5330 5318 5307 5296 5287 5279 5272 5266 5262 5258 5256 5255 5255 5255 5257 5259 5263 5267 5272 5278 5286 5294 5304 5315 5329 5347 5365 5386 5409 5432